[[{"header":{"parameterUnit":"m.s-1","parameterCategory":1,"la1":30.2991,"la2":30.254,"lo1":-89.0895,"lo2":-89.0444,"dy":0.0017,"dx":0.0017,"nx":28,"ny":28,"refTime":"2024-06-30T03:00:00:Z","depth":0,"parameterNumber":2,"parameterNumberName":"U-component_of_WINDS"},"data":[0,0,0,0,0,0,0,0,0,0,0,0,0,0,0,0,0,0,0,0,0,0,0,0,0,0,0,0,0,0,0,0,0,0,0,0,0,0,0,0,0,0,0,0,0,0,0,0,0,0,0,0,0,0,0,0,0,0,3.2669,3.267,0,3.2717,3.2718,3.2718,3.2683,3.2681,3.268,3.2678,3.2724,3.2727,3.2729,0,0,0,0,0,0,0,0,0,0,0,0,0,3.2542,3.2544,3.2669,3.267,3.267,3.2717,3.2718,3.2719,3.2683,3.2681,3.2679,3.2678,3.2723,3.2726,3.273,0,0,0,0,0,0,0,0,0,0,0,0,0,3.2594,3.2545,3.2669,3.2658,3.2658,3.2717,3.2718,3.2719,3.2684,3.2681,3.2679,3.2677,3.2722,3.2726,3.273,3.2801,0,0,3.2742,3.2744,0,0,0,0,0,0,0,0,3.2591,3.2599,3.2659,3.2659,3.2659,3.2692,3.269,3.2746,3.2684,3.2674,3.2678,3.2676,3.2715,3.2719,3.2733,3.2803,3.2805,3.2743,3.2745,3.2747,3.2748,0,0,0,0,0,0,0,3.2588,3.2597,3.2688,3.266,3.266,3.265,3.2655,3.27,3.2707,3.2674,3.2672,3.2678,3.2714,3.273,3.2734,3.2806,3.2742,3.2746,3.2748,3.275,3.2933,3.2936,0,0,0,0,0,0,3.2586,3.2594,3.2687,3.269,3.2619,3.2654,3.2659,3.2684,3.2706,3.2707,3.268,3.2677,3.2724,3.273,3.2736,3.2818,3.2747,3.275,3.2753,3.2931,3.2934,3.2937,0,0,0,0,0,0,3.2583,3.2594,3.2685,3.2641,3.2652,3.2659,3.2686,3.2686,3.2701,3.2711,3.2711,3.2695,3.2722,3.273,3.2785,3.2819,3.2752,3.2756,3.2928,3.2932,3.2935,3.2985,0,0,0,0,0,0,3.258,3.2594,3.2622,3.2642,3.2654,3.2734,3.2688,3.2688,3.2708,3.2704,3.2725,3.2726,3.2721,3.2779,3.2789,3.2823,3.2759,3.2925,3.293,3.2934,3.298,3.299,3.2998,0,0,0,0,0,3.2575,3.2634,3.2624,3.2635,3.269,3.2737,3.2743,3.2738,3.2711,3.2739,3.2745,3.2725,3.2815,3.2785,3.2796,3.2832,3.2923,3.2928,3.2934,3.2976,3.2988,3.2998,0,0,0,0,0,0,3.2617,3.2636,3.2625,3.2692,3.2713,3.273,3.2765,3.2751,3.2779,3.2773,3.2764,3.2769,3.2826,3.2835,3.2802,3.2901,3.2864,3.2872,3.2892,3.2904,3.2913,3.2908,3.2762,0,0,0,0,0,3.2634,3.2671,3.2686,3.2744,3.2755,3.2758,3.2778,3.2772,3.2793,3.2801,3.2811,3.2831,3.2863,3.2884,3.2915,3.2982,3.2984,3.3012,3.3021,3.3028,3.3034,3.3068,3.3079,3.2955,3.2955,3.2955,0,0,3.2669,3.2684,3.2708,3.2752,3.2768,3.2804,3.2766,3.2807,3.2834,3.2807,3.2859,3.2867,3.2888,3.2948,3.2976,3.2957,3.307,3.3035,3.3041,3.3043,3.3074,3.3086,3.3097,3.2959,3.2958,3.2957,0,0,3.2752,3.2769,3.2817,3.2833,3.2857,3.2859,3.2871,3.289,3.2894,3.2947,3.2927,3.2958,3.3014,3.3029,3.3044,3.3132,3.3113,3.3142,3.3188,3.322,3.323,3.3238,3.3267,3.3277,3.3149,3.3149,3.3149,0,3.2792,3.2848,3.2843,3.2886,3.2904,3.2883,3.2931,3.2946,3.2979,3.2991,3.2971,3.304,3.3053,3.3115,3.3136,3.3151,3.3161,3.3138,3.3229,3.3238,3.3246,3.3272,3.3283,3.3152,3.3152,3.3151,3.3151,0,3.2895,3.2934,3.297,3.3002,3.3025,3.307,3.307,3.3094,3.3086,3.3089,3.3141,3.3156,3.3188,3.3203,3.3196,3.3264,3.3251,3.3231,3.3193,3.3261,3.3285,3.3296,3.3156,3.3155,3.3154,3.3153,0,0,3.3004,3.3032,3.3045,3.3058,3.3083,3.3112,3.3156,3.3187,3.3206,3.323,3.3263,3.3311,3.3292,3.3309,3.3303,3.3332,3.3397,3.3307,3.3308,3.3321,3.3469,3.3482,3.3494,3.3386,3.3388,3.339,3.3466,0,3.3085,3.3161,3.3157,3.3227,3.3261,3.3242,3.3279,3.3297,3.3301,3.333,3.3334,3.3367,3.334,3.335,3.3378,3.3383,3.3426,3.3378,3.3415,3.3416,3.3407,3.3507,3.3522,3.3593,3.3476,3.3478,3.3479,0,3.319,3.3216,3.329,3.3307,3.3322,3.3355,3.3383,3.3412,3.3431,3.3432,3.3451,3.344,3.3481,3.3445,3.35,3.3467,3.3483,3.3487,3.349,3.349,3.3449,3.3508,3.3616,3.3626,3.3494,3.3493,3.3492,0,3.3257,3.3312,3.3362,3.3375,3.3397,3.3421,3.3431,3.3448,3.3467,3.3491,3.3503,3.3532,3.3546,3.3568,3.3564,3.3539,3.3619,3.3584,3.3619,3.3619,3.3634,3.3633,3.3744,3.365,3.3649,3.3649,3.3649,0,3.3347,3.3392,3.3393,3.3423,3.3472,3.3467,3.3516,3.3523,3.3539,3.3569,3.3554,3.3582,3.3577,3.3605,3.3603,3.3647,3.3655,3.3655,3.3653,3.3655,3.3654,3.3662,3.3656,3.3652,3.3651,3.3651,3.365,0,3.3429,3.3433,3.3485,3.3503,3.3508,3.3543,3.3557,3.3585,3.3588,3.3626,3.3635,3.3639,3.3671,3.3671,3.3707,3.3705,3.3759,3.3753,3.3752,3.375,3.3784,3.3779,3.3901,3.3915,3.3815,3.3816,3.3817,0,3.3485,3.3519,3.354,3.3559,3.3571,3.3603,3.3622,3.3618,3.3638,3.3662,3.3687,3.3718,3.3742,3.3793,3.3799,3.3826,3.3818,3.3859,3.3822,3.3822,3.3815,3.3812,3.3814,3.3865,3.3867,3.3868,3.3868,0,3.3581,3.3581,3.3609,3.3638,3.3661,3.3684,3.3704,3.3721,3.3719,3.3742,3.3775,3.3794,3.3831,3.386,3.3886,3.3895,3.388,3.388,3.3889,3.3889,3.3886,3.3885,3.3768,3.3877,3.3876,3.3875,3.3875,3.3875,3.365,3.3678,3.3697,3.3728,3.3743,3.3762,3.3789,3.3795,3.3823,3.3853,3.3849,3.3885,3.3902,3.3935,3.3947,3.3973,3.3959,3.3972,3.3975,3.3978,3.398,3.3885,3.3978,3.3978,3.3978,3.3978,3.3978,0,3.3743,3.3754,3.3783,3.3812,3.3836,3.3823,3.3844,3.3865,3.3897,3.3914,3.3938,3.3975,3.4003,3.4011,3.4038,3.4058,3.4052,3.4065,3.4062,3.4063,3.3993,3.3981,3.4069,3.4069,3.4069,3.4069,3.4069,3.4069,3.3794,3.384,3.3841,3.3894,3.3905,3.394,3.3953,3.397,3.3983,3.4025,3.4049,3.4054,3.4067,3.4095,3.412,3.4121,3.413,3.4145,3.4144,3.4078,3.4068,3.406,3.4048,3.4148,3.4148,3.4211,3.4211,3.4212]},{"header":{"parameterUnit":"m.s-1","parameterCategory":1,"la1":30.2991,"la2":30.254,"lo1":-89.0895,"lo2":-89.0444,"dy":0.0017,"dx":0.0017,"nx":28,"ny":28,"refTime":"2024-06-30T03:00:00:Z","depth":0,"parameterNumber":3,"parameterNumberName":"V-component_of_WINDS"},"data":[0,0,0,0,0,0,0,0,0,0,0,0,0,0,0,0,0,0,0,0,0,0,0,0,0,0,0,0,0,0,0,0,0,0,0,0,0,0,0,0,0,0,0,0,0,0,0,0,0,0,0,0,0,0,0,0,0,0,3.6581,3.6583,0,3.6718,3.672,3.6722,3.6717,3.6716,3.6714,3.6712,3.6849,3.6855,3.686,0,0,0,0,0,0,0,0,0,0,0,0,0,3.6311,3.6316,3.6581,3.6583,3.6584,3.6718,3.672,3.6722,3.6718,3.6715,3.6713,3.6711,3.6847,3.6854,3.686,0,0,0,0,0,0,0,0,0,0,0,0,0,3.6436,3.6317,3.6581,3.6599,3.6602,3.6718,3.672,3.6722,3.6718,3.6715,3.6713,3.671,3.6845,3.6853,3.6861,3.6968,0,0,3.6886,3.689,0,0,0,0,0,0,0,0,3.6429,3.6446,3.6594,3.6598,3.6601,3.6698,3.6675,3.6805,3.6719,3.6674,3.6712,3.6709,3.6801,3.6813,3.6844,3.6974,3.698,3.6887,3.6892,3.6895,3.6897,0,0,0,0,0,0,0,3.642,3.644,3.6635,3.6596,3.6601,3.6598,3.6613,3.67,3.6751,3.6678,3.6678,3.6694,3.6802,3.6837,3.6848,3.6982,3.6887,3.6894,3.6899,3.6902,3.7204,3.7207,0,0,0,0,0,0,3.6408,3.6433,3.6631,3.6639,3.6506,3.6605,3.6622,3.667,3.6751,3.676,3.6696,3.6693,3.6824,3.6838,3.6852,3.6981,3.6895,3.6903,3.6907,3.7201,3.7205,3.7208,0,0,0,0,0,0,3.6402,3.6426,3.6625,3.6536,3.6561,3.6613,3.6667,3.6674,3.6708,3.6765,3.6774,3.6722,3.6822,3.6841,3.6939,3.6986,3.6906,3.6914,3.7197,3.7202,3.7207,3.7241,0,0,0,0,0,0,3.6395,3.6424,3.6466,3.6537,3.6566,3.6711,3.667,3.6679,3.6723,3.672,3.6791,3.68,3.6822,3.6927,3.6947,3.6996,3.692,3.7193,3.7199,3.7205,3.7236,3.7246,3.7255,0,0,0,0,0,3.6385,3.647,3.6468,3.6492,3.662,3.6714,3.673,3.6754,3.6727,3.6769,3.6804,3.6798,3.6978,3.6937,3.696,3.7012,3.719,3.7198,3.7205,3.7231,3.7244,3.7255,0,0,0,0,0,0,3.6402,3.648,3.6479,3.659,3.6645,3.6713,3.6767,3.6767,3.6831,3.6826,3.6851,3.6867,3.6965,3.6998,3.6951,3.7118,3.708,3.7092,3.7093,3.7106,3.7115,3.7105,3.6927,0,0,0,0,0,3.6419,3.649,3.6553,3.6645,3.6673,3.6715,3.6757,3.677,3.6828,3.6852,3.6895,3.6951,3.7019,3.7064,3.7131,3.724,3.7255,3.7287,3.7297,3.7304,3.7314,3.7373,3.7387,3.7232,3.7231,3.7231,0,0,3.6455,3.6506,3.6549,3.665,3.6694,3.6766,3.6735,3.6812,3.6865,3.6863,3.6958,3.6992,3.7055,3.7159,3.7207,3.719,3.736,3.7313,3.7319,3.7325,3.7382,3.7396,3.7409,3.7236,3.7235,3.7235,0,0,3.6555,3.6602,3.6683,3.6728,3.6796,3.6823,3.6843,3.6911,3.6933,3.7029,3.7029,3.7091,3.7209,3.7254,3.7293,3.7409,3.7405,3.7429,3.748,3.7537,3.7549,3.756,3.76,3.7614,3.7439,3.7439,3.7439,0,3.659,3.6699,3.6724,3.6801,3.6845,3.6847,3.6928,3.697,3.7056,3.7086,3.7065,3.7213,3.7256,3.737,3.7398,3.7429,3.7451,3.7421,3.7546,3.7557,3.7567,3.7606,3.7621,3.7442,3.7441,3.7441,3.7441,0,3.6738,3.6813,3.687,3.6954,3.7004,3.7083,3.7117,3.7165,3.7173,3.7202,3.7298,3.735,3.7426,3.7454,3.7463,3.7569,3.7556,3.754,3.7503,3.7584,3.7621,3.7636,3.7445,3.7444,3.7444,3.7443,0,0,3.6855,3.695,3.6971,3.7008,3.7083,3.7141,3.7218,3.7294,3.7333,3.7392,3.7457,3.7556,3.7542,3.7585,3.7599,3.7649,3.7736,3.7627,3.7629,3.7645,3.7854,3.7864,3.7881,3.7734,3.7737,3.7739,3.7848,0,3.6963,3.7103,3.7126,3.7248,3.7316,3.7318,3.7386,3.7438,3.7467,3.7528,3.7559,3.7629,3.7605,3.7631,3.7681,3.7715,3.7778,3.7707,3.7793,3.7796,3.7776,3.7901,3.7913,3.8013,3.7862,3.7865,3.7867,0,3.7108,3.7171,3.73,3.7364,3.7393,3.7454,3.7524,3.7583,3.7641,3.7658,3.7706,3.7714,3.7793,3.7752,3.786,3.7811,3.7847,3.7869,3.7874,3.7882,3.7836,3.7912,3.8046,3.8061,3.789,3.7888,3.7886,0,3.7178,3.7295,3.7387,3.7419,3.7497,3.7539,3.7573,3.7628,3.7672,3.7732,3.776,3.7829,3.7867,3.7919,3.7944,3.7912,3.805,3.8012,3.8065,3.8064,3.8094,3.8092,3.8235,3.8118,3.8118,3.8117,3.8117,0,3.7296,3.7375,3.742,3.7476,3.7564,3.7589,3.7674,3.7706,3.7756,3.7817,3.7823,3.788,3.791,3.7971,3.7991,3.8077,3.8094,3.8109,3.8113,3.8108,3.8106,3.8132,3.8125,3.8122,3.8121,3.812,3.8119,0,3.739,3.7424,3.7524,3.7589,3.7607,3.7668,3.7723,3.7777,3.7804,3.7882,3.7901,3.7945,3.8017,3.8047,3.8136,3.8149,3.8247,3.8246,3.8227,3.8229,3.828,3.8274,3.8445,3.8468,3.8336,3.8337,3.8338,0,3.7463,3.7524,3.7595,3.7637,3.7672,3.774,3.7784,3.781,3.7856,3.7926,3.7971,3.8043,3.8103,3.8217,3.8256,3.8323,3.8323,3.8378,3.8333,3.8326,3.8323,3.8319,3.8324,3.8386,3.8388,3.8389,3.839,0,3.7588,3.7602,3.7666,3.7736,3.7788,3.7844,3.7899,3.7932,3.7967,3.8017,3.8092,3.8138,3.8228,3.8299,3.8368,3.8401,3.8401,3.8403,3.8419,3.8415,3.8401,3.8408,3.8249,3.8399,3.8398,3.8398,3.8397,3.8397,3.7674,3.7727,3.7785,3.7856,3.7899,3.795,3.8003,3.8038,3.81,3.8177,3.8188,3.8267,3.8321,3.8415,3.845,3.8511,3.8497,3.852,3.8526,3.8531,3.8534,3.8392,3.8524,3.8524,3.8523,3.8523,3.8523,0,3.7798,3.7836,3.79,3.7977,3.8032,3.8027,3.8087,3.8133,3.8203,3.8254,3.8313,3.8397,3.8466,3.8509,3.8578,3.8618,3.8619,3.8635,3.8632,3.8639,3.8543,3.8522,3.8633,3.8633,3.8633,3.8633,3.8633,3.8633,3.787,3.7959,3.7979,3.8089,3.8126,3.8204,3.8238,3.8284,3.8325,3.842,3.8477,3.8505,3.8553,3.8625,3.8687,3.8698,3.8722,3.8739,3.8749,3.8658,3.8646,3.8636,3.8616,3.8744,3.8744,3.884,3.8841,3.8841]}]]